Time,TemperatureF,DewpointF,PressureIn,WindDirection,WindDirectionDegrees,WindSpeedMPH,WindSpeedGustMPH,Humidity,HourlyPrecipIn,Conditions,Clouds,dailyrainin,SoftwareType,DateUTC
2013-05-22 00:01:00,69.6,57.8,30.03,SE,143,4.4,4.8,66,0.01,,SCT110,0.00,VWS V14.00,2013-05-22 04:01:00,
2013-05-22 00:02:00,69.6,58.2,30.03,South,172,3.4,5.9,67,0.01,,FEW110,0.00,VWS V14.00,2013-05-22 04:02:00,
2013-05-22 00:07:00,69.2,58.2,30.03,SSW,205,3.9,4.3,68,0.01,,FEW110,0.00,VWS V14.00,2013-05-22 04:07:00,
2013-05-22 00:12:00,69.6,58.2,30.03,South,177,3.4,4.8,67,0.01,,FEW110,0.00,VWS V14.00,2013-05-22 04:12:00,
2013-05-22 00:17:00,69.4,58.4,30.03,SSW,200,3.0,3.2,68,0.01,,FEW110,0.00,VWS V14.00,2013-05-22 04:17:00,
2013-05-22 00:23:00,69.4,58.4,30.03,SSE,167,0.0,3.2,68,0.01,,FEW110,0.00,VWS V14.00,2013-05-22 04:23:00,
2013-05-22 00:28:00,68.5,58.7,30.03,East,88,3.4,3.8,71,0.01,,FEW110,0.00,VWS V14.00,2013-05-22 04:28:00,
2013-05-22 00:33:00,67.7,59.2,30.03,East,88,3.0,3.8,74,0.00,,FEW110,0.00,VWS V14.00,2013-05-22 04:33:00,
2013-05-22 00:38:00,67.2,59.4,30.03,SE,124,3.9,4.3,76,0.00,,FEW110,0.00,VWS V14.00,2013-05-22 04:38:00,
2013-05-22 00:43:00,67.2,59.7,30.03,SE,137,3.9,4.3,77,0.00,,FEW110,0.00,VWS V14.00,2013-05-22 04:43:00,
2013-05-22 00:48:00,67.2,60.5,30.03,East,90,3.9,4.3,79,0.00,,FEW110,0.00,VWS V14.00,2013-05-22 04:48:00,
2013-05-22 00:53:00,67.2,60.5,30.03,ENE,73,3.4,3.8,79,0.00,,FEW110,0.00,VWS V14.00,2013-05-22 04:53:00,
2013-05-22 00:58:00,67.0,61.0,30.03,ENE,75,2.5,3.2,81,0.00,,FEW110,0.00,VWS V14.00,2013-05-22 04:58:00,
2013-05-22 01:03:00,66.8,60.8,30.00,ENE,71,3.0,3.8,81,0.00,,CLR,0.00,VWS V14.00,2013-05-22 05:03:00,
2013-05-22 01:08:00,66.6,61.0,30.00,SSE,149,3.0,3.2,82,0.00,,CLR,0.00,VWS V14.00,2013-05-22 05:08:00,
2013-05-22 01:13:00,66.4,60.4,30.00,East,93,3.0,3.8,81,0.00,,CLR,0.00,VWS V14.00,2013-05-22 05:13:00,
2013-05-22 01:18:00,66.4,60.4,30.00,ENE,65,3.0,3.8,81,0.00,,CLR,0.00,VWS V14.00,2013-05-22 05:18:00,
2013-05-22 01:24:00,65.9,60.2,30.00,SSW,203,0.0,0.0,82,0.00,,CLR,0.00,VWS V14.00,2013-05-22 05:24:00,
2013-05-22 01:29:00,65.3,60.4,30.00,SW,234,0.0,3.2,84,0.00,,CLR,0.00,VWS V14.00,2013-05-22 05:29:00,
2013-05-22 01:34:00,65.3,60.7,30.00,SE,131,2.5,3.8,85,0.00,,CLR,0.00,VWS V14.00,2013-05-22 05:34:00,
2013-05-22 01:39:00,65.3,60.7,30.00,ENE,72,0.0,0.0,85,0.00,,CLR,0.00,VWS V14.00,2013-05-22 05:39:00,
2013-05-22 01:44:00,64.8,60.8,30.00,ENE,72,0.0,0.0,87,0.00,,CLR,0.00,VWS V14.00,2013-05-22 05:44:00,
2013-05-22 01:49:00,65.2,61.2,30.00,SE,138,0.0,0.0,87,0.00,,CLR,0.00,VWS V14.00,2013-05-22 05:49:00,
2013-05-22 01:54:00,65.0,61.0,30.00,SSE,149,0.0,2.7,87,0.00,,CLR,0.00,VWS V14.00,2013-05-22 05:54:00,
2013-05-22 01:59:00,65.0,60.7,30.00,SE,130,3.0,4.8,86,0.00,,CLR,0.00,VWS V14.00,2013-05-22 05:59:00,
2013-05-22 02:04:00,65.0,60.3,30.00,SSW,203,0.0,3.8,85,0.00,,CLR,0.00,VWS V14.00,2013-05-22 06:04:00,
2013-05-22 02:09:00,64.8,59.8,30.00,West,281,3.0,3.8,84,0.00,,CLR,0.00,VWS V14.00,2013-05-22 06:09:00,
2013-05-22 02:15:00,64.2,59.3,30.00,West,277,3.0,3.2,84,0.00,,CLR,0.00,VWS V14.00,2013-05-22 06:15:00,
2013-05-22 02:20:00,63.5,58.9,30.00,NW,321,3.0,3.8,85,0.00,,CLR,0.00,VWS V14.00,2013-05-22 06:20:00,
2013-05-22 02:25:00,63.5,59.2,30.00,NW,312,0.0,0.0,86,0.00,,CLR,0.00,VWS V14.00,2013-05-22 06:25:00,
2013-05-22 02:30:00,63.7,59.7,30.00,WNW,297,0.0,0.0,87,0.00,,CLR,0.00,VWS V14.00,2013-05-22 06:30:00,
2013-05-22 02:35:00,63.8,60.2,30.00,SSW,200,0.0,0.0,88,0.00,,CLR,0.00,VWS V14.00,2013-05-22 06:35:00,
2013-05-22 02:40:00,64.0,60.1,30.00,SSW,200,2.5,2.7,87,0.00,,CLR,0.00,VWS V14.00,2013-05-22 06:40:00,
2013-05-22 02:45:00,63.8,59.9,30.00,SSW,201,3.0,3.2,87,0.00,,CLR,0.00,VWS V14.00,2013-05-22 06:45:00,
2013-05-22 02:50:00,63.8,59.9,29.97,SE,127,3.0,3.2,87,0.00,,CLR,0.00,VWS V14.00,2013-05-22 06:50:00,
2013-05-22 02:55:00,63.8,59.9,29.97,SE,137,3.0,3.8,87,0.00,,CLR,0.00,VWS V14.00,2013-05-22 06:55:00,
2013-05-22 03:00:00,63.8,59.9,29.97,SE,142,2.5,2.7,87,0.00,,CLR,0.00,VWS V14.00,2013-05-22 07:00:00,
2013-05-22 03:05:00,63.8,59.9,29.97,SE,146,3.0,4.3,87,0.00,,CLR,0.00,VWS V14.00,2013-05-22 07:05:00,
2013-05-22 03:10:00,63.8,59.6,29.97,SE,136,0.0,0.0,86,0.00,,CLR,0.00,VWS V14.00,2013-05-22 07:10:00,
2013-05-22 03:15:00,63.5,59.2,29.97,SSW,208,0.0,0.0,86,0.00,,CLR,0.00,VWS V14.00,2013-05-22 07:15:00,
2013-05-22 03:21:00,62.5,58.6,29.97,NNW,341,0.0,0.0,87,0.00,,CLR,0.00,VWS V14.00,2013-05-22 07:21:00,
2013-05-22 03:26:00,62.5,59.0,29.97,NW,312,3.0,3.8,88,0.00,,CLR,0.00,VWS V14.00,2013-05-22 07:26:00,
2013-05-22 03:31:00,62.4,59.1,29.97,NW,312,0.0,0.0,89,0.00,,CLR,0.00,VWS V14.00,2013-05-22 07:31:00,
2013-05-22 03:36:00,62.4,59.1,29.97,NW,312,0.0,0.0,89,0.00,,CLR,0.00,VWS V14.00,2013-05-22 07:36:00,
2013-05-22 03:41:00,62.5,59.3,29.97,NW,312,0.0,0.0,89,0.00,,CLR,0.00,VWS V14.00,2013-05-22 07:41:00,
2013-05-22 03:46:00,62.4,59.1,29.97,NW,312,0.0,0.0,89,0.00,,CLR,0.00,VWS V14.00,2013-05-22 07:46:00,
2013-05-22 03:51:00,62.2,59.2,29.97,NW,312,2.5,2.7,90,0.00,,CLR,0.00,VWS V14.00,2013-05-22 07:51:00,
2013-05-22 03:56:00,62.2,59.2,29.97,North,2,0.0,0.0,90,0.00,,CLR,0.00,VWS V14.00,2013-05-22 07:56:00,
2013-05-22 04:01:00,62.2,59.2,29.97,North,2,0.0,0.0,90,0.00,,CLR,0.00,VWS V14.00,2013-05-22 08:01:00,
2013-05-22 04:07:00,62.0,59.0,29.97,North,2,0.0,0.0,90,0.00,,CLR,0.00,VWS V14.00,2013-05-22 08:07:00,
2013-05-22 04:12:00,62.0,58.7,29.97,North,2,0.0,0.0,89,0.00,,CLR,0.00,VWS V14.00,2013-05-22 08:12:00,
2013-05-22 04:17:00,61.8,58.2,29.97,North,2,0.0,0.0,88,0.00,,CLR,0.00,VWS V14.00,2013-05-22 08:17:00,
2013-05-22 04:22:00,61.4,58.2,29.97,North,2,0.0,0.0,89,0.00,,CLR,0.00,VWS V14.00,2013-05-22 08:22:00,
2013-05-22 04:27:00,61.6,58.4,29.97,NNE,24,0.0,0.0,89,0.00,,CLR,0.00,VWS V14.00,2013-05-22 08:27:00,
2013-05-22 04:32:00,61.6,58.4,29.97,NNE,24,0.0,0.0,89,0.00,,CLR,0.00,VWS V14.00,2013-05-22 08:32:00,
2013-05-22 04:37:00,61.2,58.0,29.97,NNE,24,0.0,0.0,89,0.00,,CLR,0.00,VWS V14.00,2013-05-22 08:37:00,
2013-05-22 04:42:00,61.2,57.7,29.97,NNE,24,0.0,0.0,88,0.00,,CLR,0.00,VWS V14.00,2013-05-22 08:42:00,
2013-05-22 04:47:00,61.1,57.5,29.97,NNE,24,0.0,0.0,88,0.00,,CLR,0.00,VWS V14.00,2013-05-22 08:47:00,
2013-05-22 04:53:00,61.1,57.5,29.97,NNE,24,0.0,0.0,88,0.00,,CLR,0.00,VWS V14.00,2013-05-22 08:53:00,
2013-05-22 04:58:00,61.1,57.8,29.97,NNE,24,0.0,0.0,89,0.00,,CLR,0.00,VWS V14.00,2013-05-22 08:58:00,
2013-05-22 05:03:00,60.9,57.9,29.97,NNE,24,0.0,0.0,90,0.00,,CLR,0.00,VWS V14.00,2013-05-22 09:03:00,
2013-05-22 05:08:00,60.5,57.6,29.97,NNE,24,0.0,0.0,90,0.00,,CLR,0.00,VWS V14.00,2013-05-22 09:08:00,
2013-05-22 05:13:00,60.7,57.8,29.97,NNE,24,0.0,0.0,90,0.00,,CLR,0.00,VWS V14.00,2013-05-22 09:13:00,
2013-05-22 05:18:00,60.5,57.6,29.97,NNE,24,0.0,0.0,90,0.00,,CLR,0.00,VWS V14.00,2013-05-22 09:18:00,
2013-05-22 05:23:00,60.3,57.4,29.97,NNE,24,0.0,0.0,90,0.00,,CLR,0.00,VWS V14.00,2013-05-22 09:23:00,
2013-05-22 05:28:00,60.3,57.4,29.97,NNE,24,0.0,0.0,90,0.00,,CLR,0.00,VWS V14.00,2013-05-22 09:28:00,
2013-05-22 05:33:00,60.1,57.2,29.97,NNE,24,0.0,0.0,90,0.00,,CLR,0.00,VWS V14.00,2013-05-22 09:33:00,
2013-05-22 05:38:00,59.8,56.8,29.97,NNE,24,0.0,0.0,90,0.00,,CLR,0.00,VWS V14.00,2013-05-22 09:38:00,
2013-05-22 05:44:00,59.8,56.8,29.97,NNE,24,0.0,0.0,90,0.00,,CLR,0.00,VWS V14.00,2013-05-22 09:44:00,
2013-05-22 05:49:00,59.8,57.5,30.00,NNE,24,0.0,0.0,92,0.00,,CLR,0.00,VWS V14.00,2013-05-22 09:49:00,
2013-05-22 05:54:00,59.6,57.6,30.00,NW,310,3.0,3.8,93,0.00,,CLR,0.00,VWS V14.00,2013-05-22 09:54:00,
2013-05-22 05:59:00,58.1,55.2,30.00,NW,323,0.0,0.0,90,0.00,,CLR,0.00,VWS V14.00,2013-05-22 09:59:00,
2013-05-22 06:04:00,57.7,54.8,30.00,NW,323,0.0,0.0,90,0.00,,SCT120,0.00,VWS V14.00,2013-05-22 10:04:00,
2013-05-22 06:09:00,58.1,55.5,30.00,NW,323,0.0,0.0,91,0.00,,SCT120,0.00,VWS V14.00,2013-05-22 10:09:00,
2013-05-22 06:14:00,58.3,56.3,30.00,NW,323,0.0,0.0,93,0.00,,SCT120,0.00,VWS V14.00,2013-05-22 10:14:00,
2013-05-22 06:19:00,58.5,56.5,30.00,NW,323,0.0,0.0,93,0.00,,SCT120,0.00,VWS V14.00,2013-05-22 10:19:00,
2013-05-22 06:24:00,58.8,57.1,30.00,NW,323,0.0,0.0,94,0.00,,SCT120,0.00,VWS V14.00,2013-05-22 10:24:00,
2013-05-22 06:30:00,59.0,57.3,30.00,NW,323,0.0,0.0,94,0.00,,SCT120,0.00,VWS V14.00,2013-05-22 10:30:00,
2013-05-22 06:34:00,59.0,57.3,30.00,NW,323,0.0,0.0,94,0.00,,SCT120,0.00,VWS V14.00,2013-05-22 10:34:00,
2013-05-22 06:40:00,59.2,57.8,30.00,NW,323,0.0,0.0,95,0.00,,SCT120,0.00,VWS V14.00,2013-05-22 10:40:00,
2013-05-22 06:45:00,59.2,58.1,30.00,NW,323,0.0,0.0,96,0.00,,SCT120,0.00,VWS V14.00,2013-05-22 10:45:00,
2013-05-22 06:50:00,59.2,58.1,30.00,NW,323,0.0,0.0,96,0.00,,SCT120,0.00,VWS V14.00,2013-05-22 10:50:00,
2013-05-22 06:55:00,59.6,58.5,30.00,NW,323,0.0,0.0,96,0.00,,SCT120,0.00,VWS V14.00,2013-05-22 10:55:00,
2013-05-22 07:00:00,59.4,58.3,30.00,SW,227,0.0,0.0,96,0.00,,SCT120,0.00,VWS V14.00,2013-05-22 11:00:00,
2013-05-22 07:05:00,59.6,58.5,30.03,SW,227,0.0,0.0,96,0.00,,CLR,0.00,VWS V14.00,2013-05-22 11:05:00,
2013-05-22 07:10:00,59.6,58.5,30.03,SW,227,0.0,0.0,96,0.00,,CLR,0.00,VWS V14.00,2013-05-22 11:10:00,
2013-05-22 07:15:00,59.8,58.6,30.03,SW,227,0.0,0.0,96,0.00,,CLR,0.00,VWS V14.00,2013-05-22 11:15:00,
2013-05-22 07:21:00,60.0,58.8,30.03,SW,227,0.0,0.0,96,0.00,,CLR,0.00,VWS V14.00,2013-05-22 11:21:00,
2013-05-22 07:26:00,60.1,59.3,30.03,SW,227,0.0,0.0,97,0.00,,CLR,0.00,VWS V14.00,2013-05-22 11:26:00,
2013-05-22 07:31:00,60.3,59.5,30.03,SW,227,0.0,0.0,97,0.00,,CLR,0.00,VWS V14.00,2013-05-22 11:31:00,
2013-05-22 07:36:00,60.5,59.7,30.03,SSW,192,0.0,2.7,97,0.00,,CLR,0.00,VWS V14.00,2013-05-22 11:36:00,
2013-05-22 07:41:00,60.7,59.8,30.03,SSW,192,0.0,0.0,97,0.00,,CLR,0.00,VWS V14.00,2013-05-22 11:41:00,
2013-05-22 07:46:00,60.9,60.0,30.03,SSW,192,0.0,0.0,97,0.00,,CLR,0.00,VWS V14.00,2013-05-22 11:46:00,
2013-05-22 07:51:00,61.1,60.2,30.03,SSW,192,0.0,0.0,97,0.00,,CLR,0.00,VWS V14.00,2013-05-22 11:51:00,
2013-05-22 07:56:00,61.2,60.7,30.03,SSW,192,0.0,0.0,98,0.00,,CLR,0.00,VWS V14.00,2013-05-22 11:56:00,
2013-05-22 08:01:00,61.2,60.7,30.03,West,265,0.0,0.0,98,0.00,,CLR,0.00,VWS V14.00,2013-05-22 12:01:00,
2013-05-22 08:06:00,61.2,60.7,30.03,NW,320,0.0,3.2,98,0.00,,SCT041,0.00,VWS V14.00,2013-05-22 12:06:00,
2013-05-22 08:11:00,61.4,60.9,30.03,NW,320,2.5,3.2,98,0.00,,SCT041,0.00,VWS V14.00,2013-05-22 12:11:00,
2013-05-22 08:16:00,61.4,60.9,30.03,NW,305,0.0,0.0,98,0.00,,SCT041,0.00,VWS V14.00,2013-05-22 12:16:00,
2013-05-22 08:22:00,61.6,61.1,30.03,NW,311,3.0,3.8,98,0.00,,SCT041,0.00,VWS V14.00,2013-05-22 12:22:00,
2013-05-22 08:27:00,61.8,61.2,30.03,NW,322,2.5,3.8,98,0.00,,SCT041,0.00,VWS V14.00,2013-05-22 12:27:00,
2013-05-22 08:32:00,62.0,61.4,30.03,NW,319,2.5,3.2,98,0.00,,SCT041,0.00,VWS V14.00,2013-05-22 12:32:00,
2013-05-22 08:37:00,62.4,61.8,30.03,NW,321,4.4,4.8,98,0.00,,SCT041,0.00,VWS V14.00,2013-05-22 12:37:00,
2013-05-22 08:42:00,62.5,62.0,30.03,NNW,335,0.0,2.7,98,0.00,,SCT041,0.00,VWS V14.00,2013-05-22 12:42:00,
2013-05-22 08:47:00,62.5,61.7,30.03,NNW,335,2.5,2.7,97,0.00,,SCT041,0.00,VWS V14.00,2013-05-22 12:47:00,
2013-05-22 08:52:00,63.1,62.2,30.03,WNW,299,2.5,3.2,97,0.00,,SCT041,0.00,VWS V14.00,2013-05-22 12:52:00,
2013-05-22 08:57:00,63.3,62.1,30.03,West,263,0.0,0.0,96,0.00,,SCT041,0.00,VWS V14.00,2013-05-22 12:57:00,
2013-05-22 09:02:00,63.7,62.5,30.03,West,272,0.0,2.7,96,0.00,,FEW039,0.00,VWS V14.00,2013-05-22 13:02:00,
2013-05-22 09:07:00,63.8,62.7,30.03,NW,312,3.0,4.3,96,0.00,,FEW039,0.00,VWS V14.00,2013-05-22 13:07:00,
2013-05-22 09:13:00,64.2,62.8,30.03,NW,313,0.0,0.0,95,0.00,,FEW039,0.00,VWS V14.00,2013-05-22 13:13:00,
2013-05-22 09:18:00,64.4,62.6,30.03,West,277,2.5,2.7,94,0.00,,FEW039,0.00,VWS V14.00,2013-05-22 13:18:00,
2013-05-22 09:23:00,64.8,63.3,30.03,WSW,256,3.4,4.3,95,0.00,,FEW039,0.00,VWS V14.00,2013-05-22 13:23:00,
2013-05-22 09:28:00,64.8,63.0,30.03,WSW,257,3.0,3.2,94,0.00,,FEW039,0.00,VWS V14.00,2013-05-22 13:28:00,
2013-05-22 09:33:00,64.8,62.7,30.03,WSW,243,3.4,3.8,93,0.00,,FEW039,0.00,VWS V14.00,2013-05-22 13:33:00,
2013-05-22 09:38:00,64.6,62.2,30.03,SSW,198,0.0,0.0,92,0.00,,FEW039,0.00,VWS V14.00,2013-05-22 13:38:00,
2013-05-22 09:43:00,64.8,62.1,30.03,SW,231,2.5,3.2,91,0.00,,FEW039,0.00,VWS V14.00,2013-05-22 13:43:00,
2013-05-22 09:48:00,65.0,62.3,30.03,SE,124,3.0,3.2,91,0.00,,FEW039,0.00,VWS V14.00,2013-05-22 13:48:00,
2013-05-22 09:53:00,65.2,62.5,30.03,SE,124,0.0,0.0,91,0.00,,FEW039,0.00,VWS V14.00,2013-05-22 13:53:00,
2013-05-22 09:58:00,65.5,62.8,30.03,SE,124,0.0,0.0,91,0.00,,FEW039,0.00,VWS V14.00,2013-05-22 13:58:00,
2013-05-22 10:03:00,65.9,63.5,30.03,SW,230,0.0,0.0,92,0.00,,FEW029,0.00,VWS V14.00,2013-05-22 14:03:00,
2013-05-22 10:08:00,66.4,63.7,30.03,North,0,2.5,2.7,91,0.00,,FEW029,0.00,VWS V14.00,2013-05-22 14:08:00,
2013-05-22 10:13:00,67.0,64.3,30.03,ENE,62,2.5,2.7,91,0.00,,FEW029,0.00,VWS V14.00,2013-05-22 14:13:00,
2013-05-22 10:18:00,67.4,64.3,30.03,SSE,154,2.5,2.7,90,0.00,,FEW029,0.00,VWS V14.00,2013-05-22 14:18:00,
2013-05-22 10:23:00,67.9,64.6,30.03,SSW,193,3.0,3.8,89,0.00,,FEW029,0.00,VWS V14.00,2013-05-22 14:23:00,
2013-05-22 10:29:00,68.7,64.0,30.03,West,266,3.0,4.8,85,0.00,,FEW029,0.00,VWS V14.00,2013-05-22 14:29:00,
2013-05-22 10:34:00,69.0,62.6,30.03,WSW,246,0.0,0.0,80,0.00,,FEW029,0.00,VWS V14.00,2013-05-22 14:34:00,
2013-05-22 10:39:00,69.0,61.9,30.03,WSW,256,0.0,0.0,78,0.00,,FEW029,0.00,VWS V14.00,2013-05-22 14:39:00,
2013-05-22 10:44:00,69.6,60.6,30.03,SSW,210,0.0,0.0,73,0.00,,FEW029,0.00,VWS V14.00,2013-05-22 14:44:00,
2013-05-22 10:49:00,70.0,61.7,30.03,WNW,300,2.5,3.8,75,0.00,,FEW029,0.00,VWS V14.00,2013-05-22 14:49:00,
2013-05-22 10:54:00,70.3,60.5,30.03,North,8,0.0,2.7,71,0.00,,FEW029,0.00,VWS V14.00,2013-05-22 14:54:00,
2013-05-22 10:59:00,71.1,59.6,30.03,SW,223,3.0,3.2,67,0.00,,FEW029,0.00,VWS V14.00,2013-05-22 14:59:00,
2013-05-22 11:04:00,71.6,59.7,30.03,SSW,202,0.0,2.7,66,0.00,,SCT048,0.00,VWS V14.00,2013-05-22 15:04:00,
2013-05-22 11:09:00,72.0,58.3,30.03,SSE,154,2.5,4.3,62,0.00,,SCT048,0.00,VWS V14.00,2013-05-22 15:09:00,
2013-05-22 11:14:00,72.0,59.2,30.03,West,278,3.0,3.2,64,0.00,,SCT048,0.00,VWS V14.00,2013-05-22 15:14:00,
2013-05-22 11:19:00,72.9,60.0,30.03,West,276,3.0,3.2,64,0.00,,SCT048,0.00,VWS V14.00,2013-05-22 15:19:00,
2013-05-22 11:24:00,73.3,60.0,30.03,SSW,209,0.0,3.8,63,0.00,,SCT048,0.00,VWS V14.00,2013-05-22 15:24:00,
2013-05-22 11:29:00,73.5,59.7,30.03,SSE,158,4.4,4.8,62,0.00,,SCT048,0.00,VWS V14.00,2013-05-22 15:29:00,
2013-05-22 11:34:00,73.9,59.6,30.00,WSW,248,3.0,4.3,61,0.00,,SCT048,0.00,VWS V14.00,2013-05-22 15:34:00,
2013-05-22 11:40:00,74.4,60.6,30.00,SSE,149,3.9,4.3,62,0.00,,SCT048,0.00,VWS V14.00,2013-05-22 15:40:00,
2013-05-22 11:45:00,74.8,60.9,30.00,WSW,256,3.4,4.3,62,0.00,,SCT048,0.00,VWS V14.00,2013-05-22 15:45:00,
2013-05-22 11:50:00,75.7,61.3,30.00,West,270,0.0,4.8,61,0.00,,SCT048,0.00,VWS V14.00,2013-05-22 15:50:00,
2013-05-22 11:55:00,75.9,61.0,30.00,South,173,5.9,6.4,60,0.00,,SCT048,0.00,VWS V14.00,2013-05-22 15:55:00,
2013-05-22 12:00:00,76.1,58.2,30.00,ESE,111,3.4,3.8,54,0.00,,SCT048,0.00,VWS V14.00,2013-05-22 16:00:00,
2013-05-22 12:05:00,76.5,57.5,30.00,SSW,206,0.0,3.2,52,0.00,,BKN055,0.00,VWS V14.00,2013-05-22 16:05:00,
2013-05-22 12:10:00,77.0,58.1,30.00,SSW,213,6.4,7.0,52,0.00,,BKN055,0.00,VWS V14.00,2013-05-22 16:10:00,
2013-05-22 12:15:00,77.8,57.7,30.00,SW,230,0.0,3.2,50,0.00,,BKN055,0.00,VWS V14.00,2013-05-22 16:15:00,
2013-05-22 12:21:00,78.5,58.9,30.00,SSW,195,3.9,5.9,51,0.00,,BKN055,0.00,VWS V14.00,2013-05-22 16:21:00,
2013-05-22 12:26:00,78.9,59.2,30.00,SSW,197,3.4,3.8,51,0.00,,BKN055,0.00,VWS V14.00,2013-05-22 16:26:00,
2013-05-22 12:31:00,78.9,59.2,30.00,SSW,204,4.4,9.1,51,0.00,,BKN055,0.00,VWS V14.00,2013-05-22 16:31:00,
2013-05-22 12:36:00,79.4,59.2,29.97,WSW,237,6.4,7.5,50,0.00,,BKN055,0.00,VWS V14.00,2013-05-22 16:36:00,
2013-05-22 12:41:00,80.0,59.7,29.97,South,180,3.4,7.0,50,0.00,,BKN055,0.00,VWS V14.00,2013-05-22 16:41:00,
2013-05-22 12:46:00,80.2,58.7,29.97,SSW,213,3.9,6.4,48,0.00,,BKN055,0.00,VWS V14.00,2013-05-22 16:46:00,
2013-05-22 12:51:00,80.5,59.1,29.97,SSW,203,6.9,9.1,48,0.00,,BKN055,0.00,VWS V14.00,2013-05-22 16:51:00,
2013-05-22 12:56:00,80.9,58.8,29.97,SSW,198,8.4,10.5,47,0.00,,BKN055,0.00,VWS V14.00,2013-05-22 16:56:00,
2013-05-22 13:01:00,81.1,59.6,29.97,SE,132,6.9,8.6,48,0.00,,BKN055,0.00,VWS V14.00,2013-05-22 17:01:00,
2013-05-22 13:06:00,81.5,59.9,29.97,SSE,159,9.1,9.9,48,0.00,,BKN040,0.00,VWS V14.00,2013-05-22 17:06:00,
2013-05-22 13:11:00,81.1,58.4,29.97,South,172,5.4,6.4,46,0.00,,BKN040,0.00,VWS V14.00,2013-05-22 17:11:00,
2013-05-22 13:16:00,81.5,58.7,29.97,WSW,258,3.0,7.0,46,0.00,,BKN040,0.00,VWS V14.00,2013-05-22 17:16:00,
2013-05-22 13:22:00,82.0,59.8,29.97,WSW,239,3.0,7.0,47,0.00,,BKN040,0.00,VWS V14.00,2013-05-22 17:22:00,
2013-05-22 13:27:00,82.2,59.4,29.97,SSW,199,3.9,6.4,46,0.00,,BKN040,0.00,VWS V14.00,2013-05-22 17:27:00,
2013-05-22 13:32:00,82.8,59.9,29.97,WNW,294,4.4,9.1,46,0.00,,BKN040,0.00,VWS V14.00,2013-05-22 17:32:00,
2013-05-22 13:37:00,82.6,59.1,29.97,WSW,253,5.9,6.4,45,0.00,,BKN040,0.00,VWS V14.00,2013-05-22 17:37:00,
2013-05-22 13:42:00,83.3,58.5,29.97,South,181,8.4,10.5,43,0.00,,BKN040,0.00,VWS V14.00,2013-05-22 17:42:00,
2013-05-22 13:47:00,83.1,59.0,29.97,South,176,3.9,8.1,44,0.00,,BKN040,0.00,VWS V14.00,2013-05-22 17:47:00,
2013-05-22 13:52:00,83.9,59.7,29.97,SSE,165,8.9,12.1,44,0.00,,BKN040,0.00,VWS V14.00,2013-05-22 17:52:00,
2013-05-22 13:57:00,84.1,59.2,29.97,SW,223,5.4,9.1,43,0.00,,BKN040,0.00,VWS V14.00,2013-05-22 17:57:00,
2013-05-22 14:03:00,84.2,58.7,29.97,South,190,4.4,7.0,42,0.00,,-RA,0.00,VWS V14.00,2013-05-22 18:03:00,
2013-05-22 14:08:00,82.9,56.2,29.97,SW,226,7.9,10.5,40,0.00,,-RA,0.00,VWS V14.00,2013-05-22 18:08:00,
2013-05-22 14:13:00,83.7,57.5,29.97,SSW,200,2.5,7.0,41,0.00,,-RA,0.00,VWS V14.00,2013-05-22 18:13:00,
2013-05-22 14:18:00,84.2,57.3,29.97,SE,128,10.1,11.0,40,0.00,,-RA,0.00,VWS V14.00,2013-05-22 18:18:00,
2013-05-22 14:23:00,83.5,57.3,29.97,SE,126,6.4,7.0,41,0.00,,-RA,0.00,VWS V14.00,2013-05-22 18:23:00,
2013-05-22 14:28:00,81.7,53.6,29.97,ESE,116,16.0,17.4,38,0.00,,-RA,0.00,VWS V14.00,2013-05-22 18:28:00,
2013-05-22 14:33:00,81.1,52.4,29.94,WSW,257,3.9,4.3,37,0.00,,-RA,0.00,VWS V14.00,2013-05-22 18:33:00,
2013-05-22 14:38:00,81.3,52.5,29.94,SSE,168,6.4,8.1,37,0.00,,-RA,0.00,VWS V14.00,2013-05-22 18:38:00,
2013-05-22 14:43:00,82.2,54.1,29.94,ESE,111,3.9,7.5,38,0.00,,-RA,0.00,VWS V14.00,2013-05-22 18:43:00,
2013-05-22 14:48:00,82.6,54.4,29.94,ESE,113,4.4,7.0,38,0.00,,-RA,0.00,VWS V14.00,2013-05-22 18:48:00,
2013-05-22 14:53:00,82.9,54.8,29.94,SSE,165,6.9,13.2,38,0.00,,-RA,0.00,VWS V14.00,2013-05-22 18:53:00,
2013-05-22 14:58:00,82.9,53.3,29.94,SSE,164,8.4,9.1,36,0.00,,-RA,0.00,VWS V14.00,2013-05-22 18:58:00,
2013-05-22 15:03:00,83.1,54.2,29.94,ESE,111,4.4,4.8,37,0.00,,FEW090,0.00,VWS V14.00,2013-05-22 19:03:00,
2013-05-22 15:08:00,83.5,55.2,29.94,South,178,4.4,4.8,38,0.00,,FEW090,0.00,VWS V14.00,2013-05-22 19:08:00,
2013-05-22 15:14:00,82.4,54.3,29.94,SSE,157,3.0,4.3,38,0.00,,FEW090,0.00,VWS V14.00,2013-05-22 19:14:00,
2013-05-22 15:19:00,81.8,55.2,29.94,South,174,9.1,9.9,40,0.00,,FEW090,0.00,VWS V14.00,2013-05-22 19:19:00,
2013-05-22 15:24:00,80.7,54.2,29.94,SSE,153,3.4,4.3,40,0.00,,FEW090,0.00,VWS V14.00,2013-05-22 19:24:00,
2013-05-22 15:29:00,79.8,54.0,29.94,South,187,5.9,7.5,41,0.00,,FEW090,0.00,VWS V14.00,2013-05-22 19:29:00,
2013-05-22 15:34:00,79.1,53.4,29.94,SW,225,2.5,2.7,41,0.00,,FEW090,0.00,VWS V14.00,2013-05-22 19:34:00,
2013-05-22 15:39:00,78.7,53.7,29.94,SSW,195,2.5,4.8,42,0.00,,FEW090,0.00,VWS V14.00,2013-05-22 19:39:00,
2013-05-22 15:44:00,76.3,55.7,29.94,West,280,8.9,12.6,49,0.00,,FEW090,0.00,VWS V14.00,2013-05-22 19:44:00,
2013-05-22 15:49:00,72.4,59.5,29.94,NW,317,7.4,13.2,64,0.00,,FEW090,0.00,VWS V14.00,2013-05-22 19:49:00,
2013-05-22 15:54:00,72.9,62.2,29.94,NW,324,8.4,9.1,69,0.00,,FEW090,0.00,VWS V14.00,2013-05-22 19:54:00,
2013-05-22 15:59:00,72.8,61.6,29.94,North,3,2.5,7.5,68,0.00,,FEW090,0.00,VWS V14.00,2013-05-22 19:59:00,
2013-05-22 16:04:00,72.9,61.8,29.94,North,353,2.5,7.0,68,0.00,,SCT050,0.00,VWS V14.00,2013-05-22 20:04:00,
2013-05-22 16:09:00,72.8,61.2,29.94,North,350,5.9,6.4,67,0.00,,SCT050,0.00,VWS V14.00,2013-05-22 20:09:00,
2013-05-22 16:14:00,72.6,61.0,29.94,WNW,298,0.0,3.2,67,0.00,,SCT050,0.00,VWS V14.00,2013-05-22 20:14:00,
2013-05-22 16:20:00,72.6,61.0,29.94,WNW,298,0.0,0.0,67,0.00,,-RA,0.00,VWS V14.00,2013-05-22 20:20:00,
2013-05-22 16:25:00,72.4,61.2,29.94,WNW,298,0.0,2.7,68,0.01,,-RA,0.01,VWS V14.00,2013-05-22 20:25:00,
2013-05-22 16:30:00,71.8,61.1,29.94,WNW,298,0.0,0.0,69,0.01,,-RA,0.01,VWS V14.00,2013-05-22 20:30:00,
2013-05-22 16:35:00,71.4,61.6,29.94,ESE,120,3.0,3.2,71,0.01,, +RA,0.01,VWS V14.00,2013-05-22 20:35:00,
2013-05-22 16:40:00,71.4,62.0,29.94,East,82,0.0,2.7,72,0.01,, +RA,0.01,VWS V14.00,2013-05-22 20:40:00,
2013-05-22 16:45:00,71.4,62.3,29.94,East,82,0.0,0.0,73,0.01,, +RA,0.01,VWS V14.00,2013-05-22 20:45:00,
2013-05-22 16:50:00,70.7,63.2,29.94,SW,220,3.4,4.3,77,0.01,,-RA,0.01,VWS V14.00,2013-05-22 20:50:00,
2013-05-22 16:55:00,70.0,62.1,29.94,NNW,340,0.0,0.0,76,0.01,,-RA,0.01,VWS V14.00,2013-05-22 20:55:00,
2013-05-22 17:00:00,69.8,60.4,29.94,SSE,154,0.0,0.0,72,0.01,,-RA,0.01,VWS V14.00,2013-05-22 21:00:00,
2013-05-22 17:05:00,69.0,59.7,29.97,SSW,201,8.4,9.1,72,0.01,,RA,0.01,VWS V14.00,2013-05-22 21:05:00,
2013-05-22 17:10:00,68.7,61.9,29.97,West,262,4.4,4.8,79,0.04,,RA,0.04,VWS V14.00,2013-05-22 21:10:00,
2013-05-22 17:16:00,68.3,62.2,29.97,WNW,297,4.4,6.4,81,0.08,,RA,0.08,VWS V14.00,2013-05-22 21:16:00,
2013-05-22 17:21:00,67.4,62.0,29.97,West,279,5.9,9.1,83,0.09,,RA,0.09,VWS V14.00,2013-05-22 21:21:00,
2013-05-22 17:26:00,66.8,61.8,29.97,West,267,4.4,4.8,84,0.10,,RA,0.11,VWS V14.00,2013-05-22 21:26:00,
2013-05-22 17:31:00,66.4,61.1,29.97,WNW,288,4.4,4.8,83,0.10,,RA,0.11,VWS V14.00,2013-05-22 21:31:00,
2013-05-22 17:36:00,67.0,61.3,29.97,SSW,197,4.4,4.8,82,0.10,,RA,0.11,VWS V14.00,2013-05-22 21:36:00,
2013-05-22 17:41:00,67.0,61.3,29.97,SSW,203,0.0,0.0,82,0.10,,RA,0.11,VWS V14.00,2013-05-22 21:41:00,
2013-05-22 17:46:00,67.4,61.7,29.97,SW,222,0.0,0.0,82,0.10,,RA,0.11,VWS V14.00,2013-05-22 21:46:00,
2013-05-22 17:51:00,67.2,61.5,29.97,SW,222,0.0,0.0,82,0.10,,RA,0.11,VWS V14.00,2013-05-22 21:51:00,
2013-05-22 17:56:00,67.4,61.7,29.97,SW,222,0.0,0.0,82,0.10,,RA,0.11,VWS V14.00,2013-05-22 21:56:00,
2013-05-22 18:01:00,67.4,62.7,29.97,SSW,209,2.5,3.2,85,0.10,,RA,0.11,VWS V14.00,2013-05-22 22:01:00,
2013-05-22 18:06:00,67.4,63.4,29.97,SSW,209,0.0,0.0,87,0.10,,-RA,0.11,VWS V14.00,2013-05-22 22:06:00,
2013-05-22 18:12:00,67.7,63.4,29.97,SW,214,0.0,0.0,86,0.07,,-RA,0.11,VWS V14.00,2013-05-22 22:12:00,
2013-05-22 18:17:00,67.7,63.7,29.94,SSW,210,0.0,0.0,87,0.03,,-RA,0.11,VWS V14.00,2013-05-22 22:17:00,
2013-05-22 18:22:00,67.9,64.2,29.94,SSW,209,0.0,0.0,88,0.01,,-RA,0.11,VWS V14.00,2013-05-22 22:22:00,
2013-05-22 18:27:00,67.9,63.9,29.94,SSW,209,2.5,3.2,87,0.01,,-RA,0.11,VWS V14.00,2013-05-22 22:27:00,
2013-05-22 18:32:00,68.1,64.1,29.97,SSW,209,0.0,0.0,87,0.00,,-RA,0.11,VWS V14.00,2013-05-22 22:32:00,
2013-05-22 18:37:00,68.1,63.8,29.97,SSW,209,0.0,0.0,86,0.00,,-RA,0.11,VWS V14.00,2013-05-22 22:37:00,
2013-05-22 18:42:00,67.9,63.9,29.97,SSW,209,0.0,0.0,87,0.00,,-RA,0.11,VWS V14.00,2013-05-22 22:42:00,
2013-05-22 18:47:00,67.9,63.9,29.97,SSW,209,0.0,0.0,87,0.00,,-RA,0.11,VWS V14.00,2013-05-22 22:47:00,
2013-05-22 18:52:00,67.9,64.2,29.97,SSW,209,0.0,0.0,88,0.00,,-RA,0.11,VWS V14.00,2013-05-22 22:52:00,
2013-05-22 18:58:00,67.9,64.2,29.97,SSW,209,0.0,0.0,88,0.00,,-RA,0.11,VWS V14.00,2013-05-22 22:58:00,
2013-05-22 19:03:00,67.7,63.7,29.97,SSW,209,0.0,0.0,87,0.00,,BKN100,0.11,VWS V14.00,2013-05-22 23:03:00,
2013-05-22 19:08:00,67.7,64.1,29.97,SSW,209,0.0,0.0,88,0.00,,BKN100,0.11,VWS V14.00,2013-05-22 23:08:00,
2013-05-22 19:13:00,67.7,64.4,29.97,SSW,209,0.0,0.0,89,0.00,,BKN100,0.11,VWS V14.00,2013-05-22 23:13:00,
2013-05-22 19:18:00,67.7,64.4,29.94,SSW,209,0.0,0.0,89,0.00,,BKN100,0.11,VWS V14.00,2013-05-22 23:18:00,
2013-05-22 19:23:00,67.6,64.2,29.94,SSW,209,0.0,0.0,89,0.00,,BKN100,0.11,VWS V14.00,2013-05-22 23:23:00,
2013-05-22 19:28:00,67.6,64.2,29.94,SSW,209,0.0,0.0,89,0.00,,BKN100,0.11,VWS V14.00,2013-05-22 23:28:00,
2013-05-22 19:33:00,67.4,64.3,29.94,SSW,209,0.0,0.0,90,0.00,,BKN100,0.11,VWS V14.00,2013-05-22 23:33:00,
2013-05-22 19:38:00,67.4,64.3,29.94,SSW,209,0.0,0.0,90,0.00,,BKN100,0.11,VWS V14.00,2013-05-22 23:38:00,
2013-05-22 19:43:00,67.6,64.5,29.94,SSW,210,0.0,0.0,90,0.00,,BKN100,0.11,VWS V14.00,2013-05-22 23:43:00,
2013-05-22 19:49:00,67.4,64.3,29.94,SSW,209,0.0,0.0,90,0.00,,BKN100,0.11,VWS V14.00,2013-05-22 23:49:00,
2013-05-22 19:54:00,67.4,64.0,29.94,SSW,209,0.0,0.0,89,0.00,,BKN100,0.11,VWS V14.00,2013-05-22 23:54:00,
2013-05-22 19:59:00,67.4,64.0,29.94,SSW,209,0.0,0.0,89,0.00,,BKN100,0.11,VWS V14.00,2013-05-22 23:59:00,
2013-05-22 20:04:00,67.2,63.8,29.97,SSW,209,0.0,0.0,89,0.00,,BKN100,0.11,VWS V14.00,2013-05-23 00:04:00,
2013-05-22 20:09:00,67.0,64.0,29.97,SSW,209,0.0,0.0,90,0.00,,BKN100,0.11,VWS V14.00,2013-05-23 00:09:00,
2013-05-22 20:14:00,67.0,64.0,29.97,SSW,209,0.0,0.0,90,0.00,,BKN100,0.11,VWS V14.00,2013-05-23 00:14:00,
2013-05-22 20:19:00,67.0,63.7,29.97,SSW,209,0.0,0.0,89,0.00,,BKN100,0.11,VWS V14.00,2013-05-23 00:19:00,
2013-05-22 20:24:00,66.8,63.5,29.97,SSW,209,0.0,0.0,89,0.00,,BKN100,0.11,VWS V14.00,2013-05-23 00:24:00,
2013-05-22 20:30:00,66.6,63.6,29.97,SSW,209,0.0,0.0,90,0.00,,BKN100,0.11,VWS V14.00,2013-05-23 00:30:00,
2013-05-22 20:35:00,66.4,63.4,29.97,SSW,209,0.0,0.0,90,0.00,,BKN100,0.11,VWS V14.00,2013-05-23 00:35:00,
2013-05-22 20:40:00,66.1,63.7,29.97,NNW,336,3.9,4.3,92,0.00,,BKN100,0.11,VWS V14.00,2013-05-23 00:40:00,
2013-05-22 20:45:00,65.9,63.8,29.97,NNW,331,4.4,4.8,93,0.00,,BKN100,0.11,VWS V14.00,2013-05-23 00:45:00,
2013-05-22 20:50:00,65.9,63.8,29.97,NNW,331,0.0,0.0,93,0.00,,BKN100,0.11,VWS V14.00,2013-05-23 00:50:00,
2013-05-22 20:55:00,66.1,64.0,29.97,NNW,331,0.0,0.0,93,0.00,,BKN100,0.11,VWS V14.00,2013-05-23 00:55:00,
2013-05-22 21:00:00,65.7,63.6,29.97,NNW,331,0.0,0.0,93,0.00,,BKN100,0.11,VWS V14.00,2013-05-23 01:00:00,
2013-05-22 21:05:00,65.7,63.6,29.97,NNW,331,0.0,0.0,93,0.00,,BKN110,0.11,VWS V14.00,2013-05-23 01:05:00,
2013-05-22 21:10:00,65.9,63.8,29.97,NNW,331,0.0,0.0,93,0.00,,BKN110,0.11,VWS V14.00,2013-05-23 01:10:00,
2013-05-22 21:15:00,65.7,63.6,29.97,NNW,331,0.0,0.0,93,0.00,,BKN110,0.11,VWS V14.00,2013-05-23 01:15:00,
2013-05-22 21:20:00,65.5,63.4,29.97,NNW,331,0.0,0.0,93,0.00,,BKN110,0.11,VWS V14.00,2013-05-23 01:20:00,
2013-05-22 21:25:00,65.2,63.1,29.97,NNW,331,0.0,0.0,93,0.00,,BKN110,0.11,VWS V14.00,2013-05-23 01:25:00,
2013-05-22 21:30:00,65.2,63.4,29.97,ENE,78,0.0,0.0,94,0.00,,BKN110,0.11,VWS V14.00,2013-05-23 01:30:00,
2013-05-22 21:35:00,65.2,63.1,29.97,ENE,78,0.0,0.0,93,0.00,,BKN110,0.11,VWS V14.00,2013-05-23 01:35:00,
2013-05-22 21:40:00,65.2,63.1,29.97,ENE,78,3.0,3.2,93,0.00,,BKN110,0.11,VWS V14.00,2013-05-23 01:40:00,
2013-05-22 21:45:00,65.0,63.2,29.97,ENE,72,0.0,0.0,94,0.00,,BKN110,0.11,VWS V14.00,2013-05-23 01:45:00,
2013-05-22 21:50:00,65.2,63.4,29.97,ENE,72,0.0,0.0,94,0.00,,BKN110,0.11,VWS V14.00,2013-05-23 01:50:00,
2013-05-22 21:55:00,65.2,63.4,29.97,ENE,72,0.0,0.0,94,0.00,,BKN110,0.11,VWS V14.00,2013-05-23 01:55:00,
2013-05-22 22:01:00,65.0,63.2,29.97,ENE,72,0.0,0.0,94,0.00,,BKN110,0.11,VWS V14.00,2013-05-23 02:01:00,
2013-05-22 22:05:00,65.0,63.5,29.97,ENE,72,0.0,0.0,95,0.00,,FEW120,0.11,VWS V14.00,2013-05-23 02:05:00,
2013-05-22 22:11:00,64.8,63.6,29.97,ENE,72,0.0,0.0,96,0.00,,FEW120,0.11,VWS V14.00,2013-05-23 02:11:00,
2013-05-22 22:16:00,64.8,63.6,29.97,ENE,72,0.0,0.0,96,0.00,,FEW120,0.11,VWS V14.00,2013-05-23 02:16:00,
2013-05-22 22:21:00,64.8,63.9,29.97,ENE,72,0.0,0.0,97,0.00,,FEW120,0.11,VWS V14.00,2013-05-23 02:21:00,
2013-05-22 22:26:00,64.8,63.9,29.97,ENE,72,0.0,0.0,97,0.00,,FEW120,0.11,VWS V14.00,2013-05-23 02:26:00,
2013-05-22 22:31:00,64.8,63.9,29.97,ENE,72,0.0,0.0,97,0.00,,FEW120,0.11,VWS V14.00,2013-05-23 02:31:00,
2013-05-22 22:36:00,64.8,63.9,29.97,ENE,72,0.0,0.0,97,0.00,,FEW120,0.11,VWS V14.00,2013-05-23 02:36:00,
2013-05-22 22:41:00,64.8,63.9,29.97,ENE,72,0.0,0.0,97,0.00,,FEW120,0.11,VWS V14.00,2013-05-23 02:41:00,
2013-05-22 22:46:00,64.6,63.7,29.97,ENE,72,0.0,0.0,97,0.00,,FEW120,0.11,VWS V14.00,2013-05-23 02:46:00,
2013-05-22 22:51:00,64.6,63.7,29.97,ENE,72,0.0,0.0,97,0.00,,FEW120,0.11,VWS V14.00,2013-05-23 02:51:00,
2013-05-22 22:57:00,64.4,63.5,29.97,ENE,72,0.0,0.0,97,0.00,,FEW120,0.11,VWS V14.00,2013-05-23 02:57:00,
2013-05-22 23:02:00,64.4,63.5,29.97,ENE,72,0.0,0.0,97,0.00,,FEW120,0.11,VWS V14.00,2013-05-23 03:02:00,
2013-05-22 23:07:00,64.2,63.3,29.97,ENE,72,0.0,0.0,97,0.00,,CLR,0.11,VWS V14.00,2013-05-23 03:07:00,
2013-05-22 23:12:00,64.4,63.5,29.97,ENE,72,0.0,0.0,97,0.00,,CLR,0.11,VWS V14.00,2013-05-23 03:12:00,
2013-05-22 23:17:00,64.2,63.3,29.97,ENE,72,0.0,0.0,97,0.00,,CLR,0.11,VWS V14.00,2013-05-23 03:17:00,
2013-05-22 23:22:00,64.0,63.2,29.97,ENE,72,0.0,0.0,97,0.00,,CLR,0.11,VWS V14.00,2013-05-23 03:22:00,
2013-05-22 23:27:00,63.8,63.0,29.97,ENE,72,0.0,0.0,97,0.00,,CLR,0.11,VWS V14.00,2013-05-23 03:27:00,
2013-05-22 23:32:00,63.8,63.0,29.94,NNW,333,2.5,2.7,97,0.00,,CLR,0.11,VWS V14.00,2013-05-23 03:32:00,
2013-05-22 23:37:00,63.7,62.8,29.94,NNW,327,3.0,3.8,97,0.00,,CLR,0.11,VWS V14.00,2013-05-23 03:37:00,
2013-05-22 23:42:00,63.5,62.6,29.94,NNW,327,0.0,0.0,97,0.00,,CLR,0.11,VWS V14.00,2013-05-23 03:42:00,
2013-05-22 23:47:00,63.5,62.6,29.97,NNW,327,0.0,0.0,97,0.00,,CLR,0.11,VWS V14.00,2013-05-23 03:47:00,
2013-05-22 23:52:00,63.5,62.3,29.97,NNW,327,0.0,0.0,96,0.00,,CLR,0.11,VWS V14.00,2013-05-23 03:52:00,
2013-05-22 23:57:00,63.7,62.8,29.97,NNW,328,0.0,0.0,97,0.00,,CLR,0.11,VWS V14.00,2013-05-23 03:57:00,